WD4LUQ Weather Reports


time (UTC)temp
F
wind
direction
speed
knots
gust
knots
rain 1hr
in
rain 24hr
in
rain mn
in
humidity
%
barometer
mb
20260504175011 84 157 0.0 0.0 0.00 0.00 0.00 23 994.2
20260504174439 83 202 0.0 0.0 0.00 0.00 0.00 24 994.2
20260504173938 84 202 0.0 0.0 0.00 0.00 0.00 24 994.6
20260504173406 83 67 0.0 0.0 0.00 0.00 0.00 26 994.2
20260504172905 83 90 0.0 0.0 0.00 0.00 0.00 27 994.2
20260504172404 82 180 0.0 0.0 0.00 0.00 0.00 27 994.6
20260504171903 82 180 0.0 0.0 0.00 0.00 0.00 27 994.6
20260504171402 81 67 0.0 0.0 0.00 0.00 0.00 27 994.6
20260504170901 81 135 0.0 0.0 0.00 0.00 0.00 26 994.6
20260504170400 81 45 0.0 0.0 0.00 0.00 0.00 27 994.9
20260504150953 77 45 0.9 0.9 0.00 0.00 0.00 35 995.9
20260504150452 77 135 0.0 0.0 0.00 0.00 0.00 34 995.9
20260504141233 65 112 0.0 0.0 0.00 0.00 0.00 67 996.3
20260504140732 62 112 0.0 0.0 0.00 0.00 0.00 70 996.3
20260504140200 60 90 0.0 0.0 0.00 0.00 0.00 76 996.3
20260504130616 49 225 0.0 0.0 0.00 0.00 0.00 85 996.3
20260504110245 38 225 0.0 0.0 0.00 0.00 0.00 83 995.9
20260504100128 38 225 0.0 0.0 0.00 0.00 0.00 82 995.9
20260504081801 39 225 0.0 0.0 0.00 0.00 0.00 82 995.6
20260504081228 39 225 0.0 0.0 0.00 0.00 0.00 82 995.6
20260504080727 39 225 0.0 0.0 0.00 0.00 0.00 82 995.6
20260504080226 39 225 0.0 0.0 0.00 0.00 0.00 82 995.6
20260504070139 40 225 0.0 0.0 0.00 0.00 0.00 81 995.9
20260504045530 42 225 0.0 0.0 0.00 0.00 0.00 78 996.3
20260504045028 43 225 0.0 0.0 0.00 0.00 0.00 78 996.6
20260504044526 43 225 0.0 0.0 0.00 0.00 0.00 77 996.6
20260504044025 43 225 0.0 0.0 0.00 0.00 0.00 77 996.6
20260504043525 43 225 0.0 0.0 0.00 0.00 0.00 77 996.6
20260504043023 43 225 0.0 0.0 0.00 0.00 0.00 77 996.6
20260504042522 43 225 0.0 0.0 0.00 0.00 0.00 77 996.6
20260504041949 43 225 0.0 0.0 0.00 0.00 0.00 77 996.6
20260504041446 44 225 0.0 0.0 0.00 0.00 0.00 76 996.6
20260504040914 44 225 0.0 0.0 0.00 0.00 0.00 76 996.6
20260504040413 44 225 0.0 0.0 0.00 0.00 0.00 75 997.0
20260504035911 44 225 0.0 0.0 0.00 0.00 0.00 74 997.0
20260504035410 44 225 0.0 0.0 0.00 0.00 0.00 74 997.0
20260504034909 44 225 0.0 0.0 0.00 0.00 0.00 73 997.0
20260504034408 44 225 0.0 0.0 0.00 0.00 0.00 73 997.0
20260504033906 45 225 0.0 0.0 0.00 0.00 0.00 73 997.0
20260504033405 45 225 0.0 0.0 0.00 0.00 0.00 73 997.0
20260504032832 45 225 0.0 0.0 0.00 0.00 0.00 73 996.6
20260504032331 45 225 0.0 0.0 0.00 0.00 0.00 73 997.0
20260504031828 46 225 0.0 0.0 0.00 0.00 0.00 72 997.0
20260504031327 46 225 0.0 0.0 0.00 0.00 0.00 72 996.6
20260504030826 46 225 0.0 0.0 0.00 0.00 0.00 72 996.6
20260504030325 46 225 0.0 0.0 0.00 0.00 0.00 72 996.6
20260504025822 47 225 0.0 0.0 0.00 0.00 0.00 72 996.6
20260504025322 47 225 0.0 0.0 0.00 0.00 0.00 72 996.6
20260504024821 47 225 0.0 0.0 0.00 0.00 0.00 72 996.6
20260504024320 47 225 0.0 0.0 0.00 0.00 0.00 70 996.6
20260504023818 48 225 0.0 0.0 0.00 0.00 0.00 69 996.6
20260504023317 48 225 0.0 0.0 0.00 0.00 0.00 69 996.6
20260504022816 48 225 0.0 0.0 0.00 0.00 0.00 68 996.6
20260504022315 48 225 0.0 0.0 0.00 0.00 0.00 68 996.6
20260504021813 49 225 0.0 0.0 0.00 0.00 0.00 68 996.6
20260504021312 49 225 0.0 0.0 0.00 0.00 0.00 66 996.3
20260504020812 49 225 0.0 0.0 0.00 0.00 0.00 67 996.3
20260504020310 50 225 0.0 0.0 0.00 0.00 0.00 66 996.3
20260504015810 50 225 0.0 0.0 0.00 0.00 0.00 65 996.3
20260504015309 50 225 0.0 0.0 0.00 0.00 0.00 65 995.9
20260504014808 51 225 0.0 0.0 0.00 0.00 0.00 64 995.9
20260504014307 51 225 0.0 0.0 0.00 0.00 0.00 63 995.9
20260504013806 51 225 0.0 0.0 0.00 0.00 0.00 62 995.9
20260504013202 51 225 0.0 0.0 0.00 0.00 0.00 61 995.9
20260504012630 52 225 0.0 0.0 0.00 0.00 0.00 61 995.9
20260504012130 52 225 0.0 0.0 0.00 0.00 0.00 61 995.9
20260504011629 53 225 0.0 0.0 0.00 0.00 0.00 57 995.9
20260504011024 53 225 0.0 0.0 0.00 0.00 0.00 56 995.9
20260504010523 53 225 0.0 0.0 0.00 0.00 0.00 56 995.6
20260504010023 54 225 0.0 0.0 0.00 0.00 0.00 54 995.6
20260504005521 54 225 0.0 0.0 0.00 0.00 0.00 53 995.6
20260504005019 55 225 0.0 0.0 0.00 0.00 0.00 51 995.6
20260504004518 55 225 0.0 0.0 0.00 0.00 0.00 51 995.6
20260504004015 56 225 0.0 0.0 0.00 0.00 0.00 51 995.6
20260504003514 56 225 0.0 0.0 0.00 0.00 0.00 46 995.3
20260504003013 57 225 0.0 0.0 0.00 0.00 0.00 46 995.3
20260504002512 57 225 0.0 0.0 0.00 0.00 0.00 45 995.3
20260504002011 58 225 0.0 0.0 0.00 0.00 0.00 44 995.3
20260504001510 58 225 0.0 0.0 0.00 0.00 0.00 43 995.3
20260504001008 59 225 0.0 0.0 0.00 0.00 0.00 42 995.3
20260504000507 59 225 0.0 0.0 0.00 0.00 0.00 41 995.3
20260503235934 60 225 0.0 0.0 0.00 0.00 0.00 40 995.3
20260503235433 61 225 0.0 0.0 0.00 0.00 0.00 39 995.3
20260503234932 61 225 0.0 0.0 0.00 0.00 0.00 39 995.3
20260503234430 62 225 0.0 0.0 0.00 0.00 0.00 38 995.3
20260503233929 62 225 0.0 0.0 0.00 0.00 0.00 38 995.3
20260503233428 62 225 0.0 0.0 0.00 0.00 0.00 38 995.3
20260503232926 63 157 0.0 0.0 0.00 0.00 0.00 37 995.3
20260503232354 63 157 0.0 0.0 0.00 0.00 0.00 36 995.3
20260503231853 64 157 0.0 0.0 0.00 0.00 0.00 35 995.3
20260503231352 64 157 0.0 0.0 0.00 0.00 0.00 34 995.3
20260503230851 64 67 0.0 0.0 0.00 0.00 0.00 33 995.3
20260503230350 65 157 0.0 0.0 0.00 0.00 0.00 32 995.3
20260503225848 65 157 0.0 0.0 0.00 0.00 0.00 32 995.3
20260503225347 65 135 0.0 0.0 0.00 0.00 0.00 31 995.6
20260503224847 65 135 0.0 0.0 0.00 0.00 0.00 31 995.3
20260503224346 66 45 0.0 0.0 0.00 0.00 0.00 30 995.3
20260503223814 66 22 0.0 2.6 0.00 0.00 0.00 30 995.6
20260503223313 66 22 0.0 2.6 0.00 0.00 0.00 31 995.3
20260503222811 66 135 0.9 0.9 0.00 0.00 0.00 30 995.3
20260503222310 66 45 0.9 0.9 0.00 0.00 0.00 29 995.3
20260503221809 66 112 0.0 0.0 0.00 0.00 0.00 29 995.6
20260503221309 66 112 0.0 0.0 0.00 0.00 0.00 28 995.6
20260503220808 67 157 0.0 0.0 0.00 0.00 0.00 27 995.6
20260503220307 67 135 0.0 0.0 0.00 0.00 0.00 27 995.6
20260503215806 67 180 0.0 0.0 0.00 0.00 0.00 27 995.6
20260503215305 67 135 0.0 0.9 0.00 0.00 0.00 26 995.6
20260503214804 67 45 0.9 0.9 0.00 0.00 0.00 26 995.6
20260503214304 67 45 0.0 0.0 0.00 0.00 0.00 25 995.6
20260503213803 67 180 0.0 2.6 0.00 0.00 0.00 25 995.6
20260503213302 67 157 0.0 2.6 0.00 0.00 0.00 25 995.6
20260503212729 68 90 0.0 0.0 0.00 0.00 0.00 25 995.6
20260503212228 68 337 0.0 0.0 0.00 0.00 0.00 25 995.6
20260503211727 68 67 0.0 0.9 0.00 0.00 0.00 26 995.6
20260503211227 68 135 0.9 0.9 0.00 0.00 0.00 26 995.6
20260503210726 68 90 0.0 0.0 0.00 0.00 0.00 27 995.9
20260503210224 68 67 0.0 2.6 0.00 0.00 0.00 27 995.9
20260503205723 68 45 2.6 2.6 0.00 0.00 0.00 26 995.9
20260503205151 69 157 0.0 1.7 0.00 0.00 0.00 25 995.9
20260503204650 69 135 1.7 1.7 0.00 0.00 0.00 25 995.9
20260503204118 69 22 0.0 0.9 0.00 0.00 0.00 25 995.9
20260503203616 69 67 0.9 0.9 0.00 0.00 0.00 24 995.9
20260503203115 69 45 0.0 0.0 0.00 0.00 0.00 24 995.9
20260503202614 70 157 0.0 4.3 0.00 0.00 0.00 25 995.9
20260503202112 70 180 4.3 4.3 0.00 0.00 0.00 25 996.3
20260503201612 71 157 0.0 0.9 0.00 0.00 0.00 25 996.3
20260503201110 71 112 0.0 3.5 0.00 0.00 0.00 26 996.3
20260503200609 71 22 0.0 3.5 0.00 0.00 0.00 25 996.6
20260503200006 71 247 0.9 2.6 0.00 0.00 0.00 25 996.6
20260503195505 71 247 0.0 6.1 0.00 0.00 0.00 25 997.0
20260503195004 72 247 0.0 6.1 0.00 0.00 0.00 24 997.0
20260503194503 72 247 0.0 0.9 0.00 0.00 0.00 24 997.0
20260503194001 72 247 0.0 2.6 0.00 0.00 0.00 24 997.0
20260503193459 72 247 0.9 2.6 0.00 0.00 0.00 22 997.0
20260503192958 73 247 0.0 1.7 0.00 0.00 0.00 19 997.0
20260503192456 73 247 0.0 1.7 0.00 0.00 0.00 19 997.3
20260503191955 73 247 0.0 5.2 0.00 0.00 0.00 21 997.3
20260503191455 74 247 5.2 5.2 0.00 0.00 0.00 22 997.3
20260503190953 74 90 0.0 4.3 0.00 0.00 0.00 23 997.3
20260503190421 74 22 0.0 0.0 0.00 0.00 0.00 24 997.3
20260503185921 74 292 0.0 4.3 0.00 0.00 0.00 23 997.6
20260503185420 75 112 1.7 4.3 0.00 0.00 0.00 22 997.6
20260503184848 75 135 0.0 0.0 0.00 0.00 0.00 25 997.6
20260503184316 74 135 0.0 0.9 0.00 0.00 0.00 25 997.6
20260503183815 74 67 0.0 0.9 0.00 0.00 0.00 24 997.6
20260503183313 74 202 0.9 2.6 0.00 0.00 0.00 26 997.6
20260503182812 74 315 0.0 2.6 0.00 0.00 0.00 25 997.6
20260503182312 74 90 0.0 0.0 0.00 0.00 0.00 26 998.0
20260503181810 74 202 0.0 1.7 0.00 0.00 0.00 28 997.6
20260503181309 74 90 0.0 1.7 0.00 0.00 0.00 26 998.0
20260503180807 73 67 0.0 1.7 0.00 0.00 0.00 27 998.0
20260503180305 73 135 0.0 1.7 0.00 0.00 0.00 27 998.0
20260503175805 73 45 0.0 0.0 0.00 0.00 0.00 27 998.0
20260503175305 72 157 0.0 0.0 0.00 0.00 0.00 25 998.0